Flag for U.S.A. Weather past 2 weeks in Atlanta, Georgia, U.S.A.

Now
73 °F

Sunny.


Feels Like: 71 °F
Forecast: 70 / 81 °F
Wind: 5 mph from Northeast

Location: Fulton County Airport-Brown Field

Current Time: Aug 29, 2015 at 9:13:34 AM

Latest Report: Aug 29, 2015 at 8:53 AM


Visibility: 10 mi

Pressure: 30.17 "Hg

Humidity: 88%

Dew point: 69 °F

Location of AtlantaLocation

Historic Weather in Atlanta — Graph

°F

Atlanta temperature yesterday

Maximum temperature yesterday: 83 °F (at 3:53 PM)
Minimum temperature yesterday: 67 °F (at 2:53 AM)
Average temperature yesterday: 75 °F

Past Weeks' High & Low Weather Summary

 TemperatureHumidityPressure
High90 °F (Aug 16, 4:53 PM)97% (Aug 19, 2:53 AM)30.16 "Hg (Aug 19, 2:53 AM)
Low61 °F (Aug 26, 5:53 AM)34% (Aug 14, 3:53 PM)29.89 "Hg (Aug 24, 6:53 PM)
Average77 °F74%30.02 "Hg
* Reported Aug 14 7:53 AM — Aug 29 7:53 AM, Atlanta, Weather by CustomWeather, © 2015

Note: Actual official high and low records may vary slightly from our data, if they occured in-between our weather recording intervals... More about our weather records

Advertising

Atlanta weather history for previous 24 hours

 ConditionsComfort  
Time TempWeatherWind HumidityBarometerVisibility
7:53 AM
Sat, Aug 29
72 °FPassing clouds.No wind87%30.16 "Hg10 mi
7:01 AM73 °FPassing clouds.3 mph84%30.16 "Hg10 mi
5:53 AM69 °FClear.No wind93%30.12 "Hg10 mi
4:53 AM69 °FClear.No wind90%30.11 "Hg9 mi
3:53 AM70 °FPassing clouds.No wind90%30.11 "Hg10 mi
2:53 AM70 °FPassing clouds.No wind90%30.12 "Hg10 mi
1:53 AM72 °FClear.No wind84%30.14 "Hg10 mi
12:53 AM71 °FClear.No wind87%30.14 "Hg10 mi
11:53 PM
Fri, Aug 28
73 °FPassing clouds.No wind81%30.14 "Hg10 mi
10:53 PM77 °FClear.No wind71%30.13 "Hg10 mi
9:53 PM77 °FClear.No wind71%30.12 "Hg10 mi
8:53 PM79 °FSunny.3 mph65%30.09 "Hg10 mi
7:53 PM80 °FSunny.6 mph62%30.08 "Hg10 mi
6:53 PM81 °FScattered clouds.6 mph60%30.06 "Hg10 mi
5:53 PM83 °FPassing clouds.10 mph57%30.07 "Hg10 mi
4:53 PM82 °FPassing clouds.9 mph56%30.07 "Hg10 mi
3:53 PM83 °FScattered clouds.13 mph57%30.07 "Hg10 mi
2:53 PM82 °FScattered clouds.9 mph60%30.11 "Hg10 mi
1:53 PM79 °FPartly sunny.7 mph67%30.13 "Hg10 mi
12:53 PM76 °FMostly cloudy.10 mph74%30.15 "Hg10 mi
11:53 AM75 °FOvercast.12 mph79%30.16 "Hg10 mi
10:53 AM75 °FMostly cloudy.13 mph79%30.15 "Hg10 mi
9:53 AM74 °FOvercast.6 mph82%30.13 "Hg10 mi
Weather by CustomWeather, © 2015

See weather overviewHow to use our weather pages